This is the latest recevied weather packets stored in our database for station/object KQ7A. If no packets are shown the sender has not sent any weather packets the latest 10 day(s).
| Time | Temp. | Humidity | Pressure | Rain* | Wind** | Luminosity | Snow |
|---|---|---|---|---|---|---|---|
| 1788568207 | 18.33° C | 44% | 1015.6 hPa | 0 mm | - | 91 W/m² | - |
| 1788567902 | 18.33° C | 41% | 1015.4 hPa | 0 mm | - | 98 W/m² | - |
| 1788567596 | 18.33° C | 43% | 1015.5 hPa | 0 mm | - | 114 W/m² | - |
| 1788567291 | 18.33° C | 42% | 1015.4 hPa | 0 mm | - | 105 W/m² | - |
| 1788566985 | 18.33° C | 42% | 1015.5 hPa | 0 mm | - | 97 W/m² | - |
| 1788566681 | 18.33° C | 42% | 1015.4 hPa | 0 mm | - | 111 W/m² | - |
| 1788566377 | 18.33° C | 42% | 1015.2 hPa | 0 mm | - | 140 W/m² | - |
| 1788566072 | 18.33° C | 42% | 1015.3 hPa | 0 mm | - | 142 W/m² | - |
| 1788565771 | 18.33° C | 43% | 1015.4 hPa | 0 mm | - | 113 W/m² | - |
| 1788565466 | 18.33° C | 42% | 1015.3 hPa | 0 mm | - | 135 W/m² | - |
| 1788565162 | 18.33° C | 43% | 1015.4 hPa | 0 mm | - | 117 W/m² | - |
| 1788564857 | 18.33° C | 42% | 1015.3 hPa | 0 mm | - | 152 W/m² | - |
| 1788564554 | 18.33° C | 44% | 1015.3 hPa | 0 mm | - | 143 W/m² | - |
| 1788564250 | 18.33° C | 42% | 1015.2 hPa | 0 mm | - | 120 W/m² | - |
| 1788563946 | 18.89° C | 42% | 1015.2 hPa | 0 mm | - | 178 W/m² | - |
| 1788563641 | 18.33° C | 43% | 1015.3 hPa | 0 mm | - | 150 W/m² | - |
| 1788563336 | 18.89° C | 41% | 1015.2 hPa | 0 mm | - | 153 W/m² | - |
| 1788563034 | 18.89° C | 43% | 1015.3 hPa | 0 mm | - | 181 W/m² | - |
| 1788562730 | 18.89° C | 42% | 1015.6 hPa | 0 mm | - | 175 W/m² | - |
| 1788562428 | 18.33° C | 41% | 1015.3 hPa | 0 mm | - | 193 W/m² | - |
| 1788562128 | 18.89° C | 42% | 1015.5 hPa | 0 mm | - | 184 W/m² | - |
| 1788561823 | 18.33° C | 43% | 1015.5 hPa | 0 mm | - | 189 W/m² | - |
| 1788561517 | 18.89° C | 44% | 1015.5 hPa | 0 mm | - | 189 W/m² | - |
| 1788561217 | 18.89° C | 43% | 1015.4 hPa | 0 mm | - | 185 W/m² | - |
| 1788560913 | 18.89° C | 42% | 1015.4 hPa | 0 mm | - | 193 W/m² | - |
* Rain latest hour (hover to see other rain measurements)
** Current wind speed in m/s (hover to see current wind gust speed)